星链-5509 (STARLINK-5509 )

导读 | 星芒AI

STARLINK-5509 是 SpaceX 星链计划中的一颗低轨通信卫星,属于星链第三代(v1.5)卫星系列。该卫星于2023年发射,旨在为全球提供高速互联网服务。它运行在约550公里高的近地轨道,具备先进通信技术,支持宽带接入和低延迟传输。星链系统通过部署大量卫星,构建全球覆盖的网络,服务于偏远地区及商业用户。STARLINK-5509 在提升网络连接能力、推动全球数字化方面发挥着重要作用。

基本信息
目录编号:
57263
目录名称:
STARLINK-5509
国际标识:
2023-094AX
轨道中心:
EARTH
卫星名称:
星链-5509
卫星全名:
星链-5509 (STARLINK-5509 )
卫星状态:
在轨 (已飞行851 天)
发射日期:
2023-07-07 UTC
国别 :
美国 (US)
星等 :
--
轨道信息
数据来源 国际轨道数据
星历时间: 2025-11-04T04:32:26+0800
20小时前
查看轨道信息
半长轴: 6937.208km
偏心率: 0.0000972
轨道倾角: 43.004°
近地点辐角 271.938°
升交点赤经 353.871°
平近点角 88.135°
近地点: 558.398km
远地点: 559.748km
周期: 95.838分钟
每日圈数: 15.025388
详细信息
固有亮度:
5
最大亮度:
2.4
卫星平台:
Starlink v1.5
覆盖范围:
全球
运营商:
太空探索技术公司
运营商所在国:
美国
制造商(研发单位):
太空探索技术公司
制造商所在国:
美国
使用方式:
暂无
卫星简介
星链(Starlink)计划是由太空探索技术公司(SpaceX)提出的一个巨型低轨卫星互联网星座项目,计划在2019年至2024年间在太空搭建由约1.2万颗卫星组成的“星链”网络,其中1584颗将部署在地球上空550千米处的近地轨道,并从2020年开始工作。该卫星仍在工作。
2D轨道图
3D轨道图
轨道高度分析图
轨道倾角分析图
轨道综合分析图
查看轨道综合分析图